Regional Weather Roundup
Issued by NWS

Home | Current Version | Previous Version | Graphics & Text | Print | Product List | Glossary On
Versions: 1 2 3 4 5 6 7 8 9 10 11 12 13 14 15 16 17 18 19 20 21 22 23 24 25 26 27 28 29 30 31 32 33 34 35 36 37 38 39 40 41 42 43 44 45 46 47 48 49 50
000
ASUS45 KTFX 241204
RWRMT
MONTANA HOURLY WEATHER ROUNDUP
NATIONAL WEATHER SERVICE GREAT FALLS MT
604 AM MDT FRI OCT 24 2014

NOTE: "FAIR" INDICATES FEW OR NO CLOUDS BELOW 12000 FEET WITH NO
SIGNIFICANT WEATHER AND/OR OBSTRUCTIONS TO VISIBILITY.

* THESE STATIONS ARE NOT UNDER NWS QUALITY CONTROL. THEY DO NOT
   REPORT WEATHER SUCH AS PRECIPITATION OR FOG.

MTZ001>007-043-241300-
WEST OF THE DIVIDE
CITY           SKY/WX    TMP DP  RH WIND       PRES   REMARKS
KALISPELL      CLOUDY    46  34  63 SW9       30.02R
MISSOULA       CLOUDY    45  43  93 CALM      30.09R
BUTTE          CLOUDY    45  36  71 N7        30.07R
MULLAN PASS    CLOUDY    32  30  92 VRB5      30.04R WCI  27
* ESSEX        N/A       40  38  93 SE2        N/A
* LINCOLN      N/A       40  38  93 S4G10      N/A
* POLSON       N/A       41  34  76 S2G8       N/A
* RONAN APT    CLOUDY    48  36  63 N/A        N/A
* SEELEY LAKE  N/A       44  33  65 NW4        N/A
* THOMP F APT  CLOUDY    43  35  73 SE4G13     N/A
$$

MTZ008-052>055-241300-
SOUTHWEST MONTANA
CITY           SKY/WX    TMP DP  RH WIND       PRES   REMARKS
BOZEMAN        CLOUDY    52  37  57 NW8       30.01R
DILLON         MOCLDY    46  36  68 S6        30.04R
W YELLOWSTONE  CLOUDY    45  34  65 SW9G20    30.15R
* THREE FORKS  MOCLDY    48  48 100 N/A        N/A
* BOULDER HILL N/A       45  33  63 S6         N/A
* MONIDA PASS  N/A       38  35  89 SE14G20    N/A   WCI  30
* RAYNOLDS PAS N/A       45  31  58 SW9G15     N/A
* WHITEHALL    N/A       51  37  59 NW8G15     N/A
* WISE RIVER   N/A       43  38  83 NW6        N/A
$$

MTZ009>010-012-014-046-048-049-054-241300-
EAST SLOPES AND CENTRAL MONTANA
CITY           SKY/WX    TMP DP  RH WIND       PRES   REMARKS
CUT BANK       PTCLDY    43  30  60 W23       29.93R
GREAT FALLS    MOCLDY    46  36  68 SW13      29.98R
HELENA         CLOUDY    48  39  71 N5        30.02R
MALMSTROM AFB  MOCLDY    46  37  71 SW12      30.00R
* CONRAD       PTCLDY    45  28  51 SW9        N/A
* DEARBORN     N/A       51  34  52 SW9G17     N/A
* EAST GLACIER N/A       40  29  65 W17G23     N/A   WCI  31
* MONARCH      N/A       45  28  51 W10G15     N/A
* PENDROY      N/A       45  26  47 W26G35     N/A
* ROGERS PASS  N/A       38  34  86 SE13G21    N/A   WCI  30
* SAINT MARY   N/A       40  33  76 SW6G16     N/A   WCI  36
* SWEET GRASS  N/A       44  30  58 W32G44     N/A
$$

MTZ011-013-016-021-035-040-045-047-050-051-241300-
NORTH CENTRAL MONTANA
CITY           SKY/WX    TMP DP  RH WIND       PRES   REMARKS
HAVRE          MOCLDY    48  36  63 SW20      29.90R
LEWISTOWN      CLOUDY    52  37  57 NW7       29.97R
* CHESTER      N/A       43  31  63 SW7G12     N/A
* DENTON       N/A       47  37  68 W9         N/A
* GEYSER       N/A       48  33  56 W25G31     N/A
* JUDITH GAP   N/A       47  41  80 NE8        N/A
* LOMA         N/A       48  36  63 W9         N/A
$$

MTZ017>020-022>027-061-062-241300-
NORTHEAST MONTANA
CITY           SKY/WX    TMP DP  RH WIND       PRES   REMARKS
GLASGOW        MOCLDY    48  39  71 SW7       29.86R
GLENDIVE       MOCLDY    48  36  63 NW8       29.88R
JORDAN         PTCLDY    37  32  82 W3        29.91R
SIDNEY         MOCLDY    41  36  82 CALM      29.86R
WOLF POINT     PTCLDY    43  37  79 W5        29.85R
* BEAVER HILL  N/A       48  32  54 SW12       N/A
* CIRCLE       N/A       44  35  71 N/A        N/A
* LINDSAY DVD  N/A       52  36  55 W10G16     N/A
* NAVAJO       N/A       47  39  74 W14        N/A
$$

MTZ028>042-056>058-241300-
SOUTHCENTRAL AND SOUTHEAST MONTANA
CITY           SKY/WX    TMP DP  RH WIND       PRES   REMARKS
BAKER          MOCLDY    50  30  46 SW14      29.90R
BILLINGS       MOCLDY    52  36  55 CALM      29.96R
LIVINGSTON     CLOUDY    59  34  39 SW21G37   29.97R
MILES CITY     PTCLDY    43  34  71 W9        29.92R
* LAUREL APT   PTCLDY    46  27  48 N/A        N/A
* ROUNDUP APT  PTCLDY    46  34  63 SW6        N/A
* ALZADA       N/A       44  31  60 NW4        N/A
* HYSHAM       N/A       51  28  41 W1         N/A
* LAME DEER    N/A       55  28  35 N6         N/A
* REED POINT   N/A       36  33  89 SW2        N/A
* ROSCOE HILL  N/A       59  25  27 SW20G35    N/A
$$

REGIONAL REPORTS...DAKOTAS
CITY           SKY/WX    TMP DP  RH WIND       PRES   REMARKS
WILLISTON      MOCLDY    43  36  76 S5        29.82R
DICKINSON      CLOUDY    43  30  60 SW6       29.85R
BEACH          N/A       46  32  58 W12       29.88R
CROSBY         MOCLDY    50  39  66 SW12      29.77S
TIOGA          CLOUDY    46  41  83 W8        29.83S
BISMARCK       CLOUDY    39  32  76 CALM      29.83S
GRAND FORKS    PTCLDY    39  36  89 S6        29.74S WCI  35
FARGO          MOCLDY    45  39  80 S6        29.80R
BUFFALO SD     CLOUDY    48  27  44 W3        29.85R
RAPID CITY     CLOUDY    45  32  60 CALM      29.91S
$$

REGIONAL REPORTS...WYOMING/IDAHO/WASHINGTON
CITY           SKY/WX    TMP DP  RH WIND       PRES   REMARKS
GILLETTE       CLOUDY    52  27  38 CALM      29.98R
SHERIDAN       CLOUDY    43  28  56 VRB5      29.96R
CODY           CLOUDY    57  28  33 SE8       30.01R
YELLOWSTONE LA MOCLDY    43  30  60 VRB6      30.21R
SALMON         CLOUDY    46  41  83 CALM      30.04F
MULLAN PASS    CLOUDY    32  30  92 VRB5      30.04S WCI  27
SAND POINT     CLOUDY    43  43 100 S3        30.04R
SPOKANE        CLOUDY    43  39  86 S9        30.04R

$$




USA.gov is the U.S. government's official web portal to all federal, state and local government web resources and services.